EW6866 Weather Reports


time (UTC)temp
C
wind
direction
speed
KPH
gust
KPH
rain 1hr
cm
rain 24hr
cm
rain mn
cm
humidity
%
barometer
mb
20260831053005 23 0 0.0 0.0 0.00 0.00 0.00 97 1018.7
20260831051505 23 0 0.0 0.0 0.00 0.00 0.00 97 1018.7
20260831050005 23 0 0.0 0.0 0.00 0.00 0.00 97 1018.8
20260831044505 23 0 0.0 0.0 0.00 0.00 0.00 97 1018.9
20260831043025 23 0 0.0 0.0 0.00 0.00 0.00 97 1018.8
20260831041505 23 0 0.0 0.0 0.00 0.00 0.00 97 1018.9
20260831040027 23 0 0.0 0.0 0.00 0.00 0.00 96 1018.8
20260831034526 23 0 0.0 0.0 0.00 0.00 0.00 96 1018.7
20260831033025 23 0 0.0 0.0 0.00 0.00 0.00 96 1018.9
20260831031505 23 0 0.0 0.0 0.00 0.00 0.00 96 1018.8
20260831030026 23 0 0.0 0.0 0.00 0.00 0.00 96 1018.8
20260831024504 23 0 0.0 0.0 0.00 0.00 0.00 95 1019.0
20260831023026 23 0 0.0 0.0 0.00 0.00 0.00 95 1019.0
20260831021505 23 0 0.0 0.0 0.00 0.00 0.00 95 1019.0
20260831020026 24 0 0.0 0.0 0.00 0.00 0.00 94 1019.1
20260831014526 24 0 0.0 0.0 0.00 0.00 0.00 94 1019.0
20260831013004 24 0 0.0 0.0 0.00 0.00 0.00 93 1019.0
20260831011505 24 0 0.0 0.0 0.00 0.00 0.00 92 1018.9
20260831010005 25 0 0.0 0.0 0.00 0.00 0.00 91 1018.9
20260831004526 25 268 0.0 1.6 0.00 0.00 0.00 91 1018.7
20260831003004 25 279 0.0 1.6 0.00 0.00 0.00 89 1018.5
20260831001505 25 253 0.0 1.6 0.00 0.00 0.00 89 1018.7
20260831000005 26 245 0.0 3.2 0.00 0.00 0.00 88 1018.7
20260830234526 26 285 0.0 4.8 0.00 0.00 0.00 87 1018.7
20260830233025 26 267 0.0 8.0 0.00 0.00 0.00 86 1018.9
20260830231525 27 276 0.0 6.4 0.00 0.00 0.00 86 1019.0
20260830230005 27 262 0.0 8.0 0.00 0.00 0.00 85 1018.9
20260830224505 27 252 0.0 6.4 0.00 0.00 0.00 82 1019.0
20260830223004 27 0 0.0 0.0 0.00 0.00 0.00 84 1019.0
20260830221505 28 0 0.0 0.0 0.00 0.00 0.00 82 1018.8
20260830220005 28 325 0.0 1.6 0.00 0.00 0.00 82 1018.9
20260830214504 28 0 0.0 0.0 0.00 0.00 0.00 81 1018.9
20260830213004 28 290 1.6 4.8 0.00 0.00 0.00 78 1018.9
20260830211504 29 269 1.6 4.8 0.00 0.00 0.00 78 1018.7
20260830210004 29 276 0.0 4.8 0.00 0.00 0.00 79 1018.6
20260830204504 28 292 1.6 8.0 0.00 0.00 0.00 80 1018.6
20260830203005 29 280 0.0 4.8 0.00 0.00 0.00 77 1018.7
20260830201505 30 287 0.0 3.2 0.00 0.00 0.00 75 1018.8
20260830200004 31 64 0.0 1.6 0.00 0.00 0.00 71 1018.7
20260830194505 31 290 0.0 4.8 0.00 0.00 0.00 69 1019.0
20260830193004 30 273 0.0 4.8 0.00 0.00 0.00 71 1019.1
20260830191504 30 258 0.0 4.8 0.00 0.00 0.00 68 1019.3
20260830190004 31 260 0.0 4.8 0.00 0.03 0.00 70 1019.6
20260830184526 30 262 0.0 3.2 0.00 0.03 0.00 69 1019.6
20260830183004 31 223 0.0 3.2 0.00 0.03 0.00 69 1019.8
20260830181504 31 259 0.0 3.2 0.00 0.03 0.00 67 1019.8
20260830180026 31 223 1.6 4.8 0.00 0.03 0.00 71 1019.8
20260830174504 31 263 0.0 6.4 0.00 0.03 0.00 72 1019.8
20260830173004 31 267 0.0 1.6 0.00 0.03 0.00 74 1020.0
20260830171525 30 257 0.0 3.2 0.00 0.03 0.00 73 1020.2
20260830170004 29 224 0.0 4.8 0.00 0.03 0.00 76 1020.4
20260830164504 29 187 0.0 3.2 0.00 0.03 0.00 80 1020.5
20260830163004 28 257 0.0 4.8 0.00 0.03 0.00 77 1020.6
20260830161504 29 263 0.0 1.6 0.00 0.03 0.00 78 1020.5
20260830160004 29 134 0.0 1.6 0.00 0.03 0.00 78 1020.6
20260830154504 29 64 0.0 1.6 0.00 0.03 0.00 78 1020.7
20260830153004 28 123 0.0 1.6 0.00 0.03 0.00 80 1020.8
20260830151504 27 96 0.0 1.6 0.00 0.03 0.00 84 1021.2
20260830150004 27 72 0.0 1.6 0.00 0.03 0.00 85 1021.4
20260830144504 27 65 0.0 3.2 0.00 0.03 0.00 85 1021.4
20260830143004 27 76 1.6 1.6 0.00 0.03 0.00 87 1021.4
20260830141524 27 59 0.0 4.8 0.00 0.03 0.00 88 1021.4
20260830140004 26 0 0.0 0.0 0.00 0.03 0.00 90 1021.5
20260830134504 26 78 0.0 1.6 0.00 0.03 0.00 91 1021.4
20260830133004 26 61 0.0 3.2 0.00 0.03 0.00 93 1021.4
20260830131525 26 73 0.0 1.6 0.00 0.03 0.00 96 1021.3
20260830130004 25 72 0.0 1.6 0.00 0.03 0.00 99 1021.4
20260830124503 25 0 0.0 0.0 0.00 0.03 0.00 100 1021.3
20260830123025 24 0 0.0 0.0 0.00 0.03 0.00 100 1021.4
20260830121504 23 0 0.0 0.0 0.00 0.03 0.00 100 1021.5
20260830120024 23 0 0.0 0.0 0.00 0.03 0.00 100 1021.7
20260830114525 22 0 0.0 0.0 0.00 0.03 0.00 100 1021.7
20260830113005 22 0 0.0 0.0 0.00 0.03 0.00 99 1021.6
20260830111504 22 0 0.0 0.0 0.00 0.03 0.00 99 1021.4
20260830110004 22 0 0.0 0.0 0.00 0.03 0.00 99 1021.4
20260830104504 22 0 0.0 0.0 0.00 0.03 0.00 99 1021.2
20260830103024 22 0 0.0 0.0 0.00 0.03 0.00 99 1021.2
20260830101504 22 0 0.0 0.0 0.00 0.03 0.00 99 1021.1
20260830100004 21 0 0.0 0.0 0.00 0.03 0.00 99 1021.1
20260830094524 21 0 0.0 0.0 0.00 0.03 0.00 99 1021.1
20260830093004 21 0 0.0 0.0 0.00 0.03 0.00 99 1021.1
20260830091504 21 0 0.0 0.0 0.00 0.03 0.00 99 1020.9
20260830090004 21 0 0.0 0.0 0.00 0.03 0.00 99 1020.7
20260830084503 21 0 0.0 0.0 0.00 0.03 0.00 99 1020.6
20260830083004 21 0 0.0 0.0 0.00 0.03 0.00 98 1020.6
20260830081504 21 0 0.0 0.0 0.00 0.03 0.00 98 1020.8
20260830080024 22 0 0.0 0.0 0.00 0.03 0.00 98 1020.8
20260830074505 22 0 0.0 0.0 0.00 0.03 0.00 98 1020.7
20260830073005 22 0 0.0 0.0 0.00 0.03 0.00 98 1020.7
20260830071505 22 0 0.0 0.0 0.00 0.03 0.00 98 1020.9
20260830070005 22 0 0.0 0.0 0.00 0.03 0.00 98 1020.8
20260830064526 22 0 0.0 0.0 0.00 0.05 0.00 98 1020.9
20260830063005 22 0 0.0 0.0 0.00 0.05 0.00 98 1021.0
20260830061505 22 0 0.0 0.0 0.00 0.05 0.00 98 1021.1
20260830060005 22 0 0.0 0.0 0.00 0.05 0.00 98 1021.3
20260830054506 22 0 0.0 0.0 0.00 0.05 0.00 98 1021.4